This demonstration page uses our WeatherBlox Daily Observations layout. Learn more.

Left ArrowRight Arrow

47.50024, -111.30081

Hourly Observations for May 1, 2017

Temp ( °F °C ) Dew Point ( °F °C ) Humidity (%) Winds ( mph kmh ) Pressure ( in mb ) Visibility ( mi km ) Precip ( " mm )
12:53 am 00:53 Cloudy 43 6.1 32 0 65 65 W 8 13 30.02 1017 10 16 0.00 0.03
1:53 am 01:53 Cloudy 42 5.6 32 0 68 68 W 9 15 30.01 1016 10 16 0.00 0.03
2:53 am 02:53 Cloudy 41 5 33 0.6 73 73 NW 7 11 30.05 1018 10 16 0.00 0.00
3:53 am 03:53 Cloudy 41 5 31 -0.6 67 67 NW 8 13 30.06 1018 10 16 0.00 0.00
4:53 am 04:53 Cloudy 40 4.4 31 -0.6 70 70 W 9 15 30.06 1018 10 16 0.00 0.00
5:53 am 05:53 Cloudy 39 3.9 32 0 76 76 W 9 15 30.08 1019 10 16 0.00 0.00
6:53 am 06:53 Cloudy 39 3.9 33 0.6 79 79 W 9 15 30.09 1019 10 16 0.00 0.00
7:53 am 07:53 Cloudy 40 4.4 32 0 73 73 WNW 10 17 30.11 1020 10 16 0.00 0.00
8:53 am 08:53 Cloudy 43 6.1 33 0.6 68 68 WNW 8 13 30.12 1020 10 16 0.00 0.00
9:53 am 09:53 Cloudy 44 6.7 34 1.1 68 68 WSW 9 15 30.13 1020 10 16 0.00 0.03
10:53 am 10:53 Mostly Cloudy with Light Rain 45 7.2 32 0 61 61 NNW 13 20 30.14 1021 9 14 0.00 0.03
11:53 am 11:53 Partly Cloudy 49 9.4 34 1.1 56 56 NNW 14 22 30.12 1020 10 16 0.02 0.51
12:53 pm 12:53 Partly Cloudy 49 9.4 30 -1.1 48 48 VRB 5 7 30.11 1020 10 16 0.00 0.03
1:53 pm 13:53 Cloudy with Light Rain 46 7.8 34 1.1 63 63 W 22 35 30.11 1020 10 16 0.00 0.03
2:00 pm 14:00 Cloudy 46 8 32 0 57 57 WSW 16 26 30.06 1018 10 16 0.00 0.00
2:53 pm 14:53 Cloudy 51 10.6 29 -1.7 43 43 Calm 30.08 1019 10 16 0.00 0.03
3:53 pm 15:53 Sunny 55 12.8 25 -3.9 31 31 undefined N/A 30.04 1017 10 16 0.00 0.00
4:53 pm 16:53 Mostly Cloudy 55 12.8 22 -5.6 28 28 WNW 10 17 30.02 1017 10 16 0.00 0.00
5:53 pm 17:53 Mostly Cloudy 53 11.7 24 -4.4 32 32 W 3 6 30.02 1017 10 16 0.00 0.00
6:53 pm 18:53 Cloudy 51 10.6 27 -2.8 39 39 E 8 13 30.01 1016 10 16 0.00 0.00
7:53 pm 19:53 Cloudy 49 9.4 30 -1.1 48 48 ESE 6 9 30.01 1016 10 16 0.00 0.00
8:53 pm 20:53 Cloudy 48 8.9 29 -1.7 48 48 SE 6 9 30.00 1016 10 16 0.00 0.00
9:53 pm 21:53 Cloudy 48 8.9 27 -2.8 44 44 E 3 6 30.01 1016 10 16 0.00 0.00
10:53 pm 22:53 Cloudy 47 8.3 30 -1.1 52 52 WSW 12 19 30.01 1016 10 16 0.00 0.00
11:53 pm 23:53 Cloudy with Light Rain 42 5.6 36 2.2 79 79 S 7 11 30.02 1017 8 13 0.01 0.25

Powered by AerisWeather